[[{"header":{"parameterUnit":"m.s-1","parameterCategory":1,"la1":30.2991,"la2":30.254,"lo1":-89.0895,"lo2":-89.0444,"dy":0.0017,"dx":0.0017,"nx":28,"ny":28,"refTime":"2024-09-28T21:00:00:Z","depth":0,"parameterNumber":2,"parameterNumberName":"U-component_of_WINDS"},"data":[0,0,0,0,0,0,0,0,0,0,0,0,0,0,0,0,0,0,0,0,0,0,0,0,0,0,0,0,0,0,0,0,0,0,0,0,0,0,0,0,0,0,0,0,0,0,0,0,0,0,0,0,0,0,0,0,0,0,2.5337,2.5339,0,2.5535,2.5537,2.5539,2.5542,2.554,2.5537,2.5535,2.5742,2.575,2.5758,0,0,0,0,0,0,0,0,0,0,0,0,0,2.4966,2.4973,2.5337,2.5339,2.5342,2.5535,2.5537,2.554,2.5543,2.554,2.5537,2.5534,2.574,2.5749,2.5758,0,0,0,0,0,0,0,0,0,0,0,0,0,2.5142,2.4975,2.5336,2.5366,2.5371,2.5534,2.5537,2.5541,2.5544,2.554,2.5536,2.5533,2.5737,2.5748,2.576,2.5907,0,0,2.5796,2.5801,0,0,0,0,0,0,0,0,2.5132,2.5156,2.5359,2.5364,2.537,2.551,2.5483,2.5664,2.5544,2.5478,2.5535,2.5531,2.5668,2.5685,2.5731,2.5917,2.5926,2.5797,2.5804,2.5809,2.5812,0,0,0,0,0,0,0,2.512,2.5147,2.5415,2.5362,2.5369,2.5372,2.5392,2.5517,2.5592,2.5484,2.5484,2.5507,2.5671,2.572,2.5736,2.5929,2.5796,2.5807,2.5814,2.5819,2.6249,2.6253,0,0,0,0,0,0,2.5101,2.5137,2.5409,2.5421,2.5239,2.5381,2.5404,2.5469,2.5591,2.5605,2.551,2.5507,2.5701,2.5722,2.5743,2.5926,2.5809,2.582,2.5827,2.6245,2.625,2.6255,0,0,0,0,0,0,2.5093,2.5125,2.5401,2.5279,2.5315,2.5392,2.5464,2.5475,2.5524,2.5611,2.5625,2.5547,2.5699,2.5727,2.5867,2.5933,2.5825,2.5836,2.6239,2.6246,2.6252,2.629,0,0,0,0,0,0,2.5082,2.5122,2.5178,2.528,2.5321,2.552,2.5468,2.5481,2.5544,2.5541,2.5648,2.5663,2.5698,2.5849,2.5878,2.5947,2.5845,2.6234,2.6242,2.625,2.6284,2.6297,2.6309,0,0,0,0,0,2.5069,2.5181,2.5181,2.5213,2.5392,2.5523,2.5547,2.5584,2.5549,2.5606,2.5663,2.5659,2.5921,2.5863,2.5897,2.5969,2.623,2.624,2.625,2.6278,2.6295,2.6309,0,0,0,0,0,0,2.5085,2.5195,2.5196,2.5344,2.5424,2.5524,2.5597,2.5601,2.5694,2.5687,2.5732,2.5756,2.5896,2.5947,2.5881,2.612,2.6071,2.6088,2.6081,2.6098,2.6111,2.6096,2.5855,0,0,0,0,0,2.5106,2.5202,2.5293,2.5416,2.5456,2.552,2.5578,2.56,2.5686,2.572,2.5786,2.5871,2.5972,2.6038,2.6136,2.6291,2.6316,2.6358,2.6371,2.6381,2.6395,2.6483,2.6503,2.6287,2.6287,2.6287,0,0,2.515,2.5222,2.528,2.5421,2.5485,2.5586,2.5548,2.5655,2.5731,2.5737,2.5873,2.5925,2.6022,2.6171,2.624,2.6218,2.646,2.6393,2.6401,2.641,2.6495,2.6515,2.6533,2.6294,2.6292,2.6291,0,0,2.5281,2.5344,2.5454,2.552,2.5618,2.566,2.5686,2.5786,2.582,2.5957,2.5965,2.6056,2.6229,2.6299,2.6356,2.6516,2.6517,2.6547,2.6614,2.6699,2.6716,2.6732,2.679,2.681,2.6561,2.6561,2.6561,0,2.5324,2.5473,2.551,2.5618,2.568,2.569,2.5802,2.5865,2.5991,2.6034,2.6008,2.6226,2.6292,2.6458,2.6497,2.6544,2.6577,2.6535,2.6711,2.6726,2.6741,2.6797,2.6819,2.6564,2.6564,2.6563,2.6563,0,2.5521,2.5625,2.5702,2.5823,2.5894,2.6003,2.6059,2.6127,2.6143,2.6189,2.633,2.641,2.6525,2.6566,2.6583,2.6735,2.6719,2.6701,2.6653,2.6764,2.6818,2.684,2.6568,2.6567,2.6566,2.6566,0,0,2.5668,2.5807,2.5835,2.5891,2.6,2.6083,2.6194,2.6305,2.6363,2.645,2.6546,2.6693,2.6678,2.6744,2.6769,2.6844,2.6967,2.6818,2.6821,2.6843,2.7142,2.7154,2.7179,2.6968,2.6973,2.6976,2.7134,0,2.5811,2.6007,2.6044,2.6215,2.6313,2.6324,2.6421,2.65,2.6546,2.6637,2.6689,2.6793,2.6764,2.6804,2.6878,2.6936,2.7028,2.6925,2.706,2.7064,2.7035,2.7206,2.722,2.7365,2.7155,2.7158,2.7161,0,2.6005,2.6096,2.6276,2.6374,2.6417,2.6503,2.6609,2.6696,2.6786,2.6815,2.6889,2.6907,2.7025,2.6971,2.7136,2.7065,2.7123,2.716,2.7167,2.7181,2.7119,2.7226,2.7412,2.7434,2.7194,2.7191,2.7189,0,2.6095,2.6263,2.6392,2.644,2.6557,2.6618,2.667,2.6757,2.6822,2.6916,2.6959,2.7065,2.7124,2.7207,2.7254,2.721,2.7416,2.7365,2.7444,2.7443,2.7487,2.7484,2.7685,2.7523,2.7522,2.7522,2.7522,0,2.6252,2.6362,2.6434,2.6514,2.6639,2.6682,2.6805,2.6856,2.6934,2.7026,2.7043,2.7129,2.7185,2.728,2.7318,2.745,2.7476,2.7504,2.7513,2.7503,2.7499,2.7541,2.7533,2.7528,2.7527,2.7525,2.7524,0,2.6373,2.6426,2.6568,2.6668,2.6696,2.6783,2.687,2.6949,2.6995,2.7112,2.7142,2.7215,2.7328,2.7383,2.7523,2.7549,2.7698,2.77,2.7667,2.7671,2.7747,2.7739,2.7983,2.8017,2.7831,2.7833,2.7834,0,2.6469,2.6555,2.6663,2.6725,2.6779,2.6879,2.6945,2.6991,2.706,2.7171,2.7238,2.7351,2.7444,2.7624,2.7692,2.78,2.7805,2.7883,2.7822,2.781,2.7808,2.7802,2.7812,2.7894,2.7896,2.7897,2.7899,0,2.6636,2.6658,2.6753,2.6857,2.6936,2.7021,2.7104,2.7154,2.7214,2.7292,2.7406,2.7479,2.7622,2.7735,2.7848,2.7904,2.7913,2.7917,2.7942,2.7933,2.791,2.7925,2.7698,2.7912,2.791,2.7909,2.7909,2.7908,2.6749,2.6826,2.6914,2.702,2.7087,2.7165,2.7245,2.7301,2.7397,2.7516,2.7539,2.7661,2.7752,2.7905,2.7965,2.8063,2.8046,2.808,2.8089,2.8097,2.8102,2.7894,2.8084,2.8083,2.8083,2.8083,2.8083,0,2.6918,2.6975,2.7072,2.7187,2.7271,2.727,2.7363,2.7433,2.754,2.7624,2.7715,2.7848,2.7958,2.8035,2.8147,2.8211,2.8218,2.8239,2.8236,2.8249,2.811,2.8079,2.8232,2.8232,2.8232,2.8232,2.8232,2.8232,2.7015,2.7145,2.7178,2.7343,2.74,2.7519,2.7573,2.7646,2.7712,2.786,2.7951,2.7999,2.8081,2.82,2.8302,2.8322,2.8363,2.8385,2.8405,2.8274,2.8258,2.8243,2.8214,2.8393,2.8393,2.8535,2.8536,2.8537]},{"header":{"parameterUnit":"m.s-1","parameterCategory":1,"la1":30.2991,"la2":30.254,"lo1":-89.0895,"lo2":-89.0444,"dy":0.0017,"dx":0.0017,"nx":28,"ny":28,"refTime":"2024-09-28T21:00:00:Z","depth":0,"parameterNumber":3,"parameterNumberName":"V-component_of_WINDS"},"data":[0,0,0,0,0,0,0,0,0,0,0,0,0,0,0,0,0,0,0,0,0,0,0,0,0,0,0,0,0,0,0,0,0,0,0,0,0,0,0,0,0,0,0,0,0,0,0,0,0,0,0,0,0,0,0,0,0,0,1.543,1.5432,0,1.5568,1.5569,1.5571,1.5571,1.5569,1.5567,1.5565,1.5713,1.5719,1.5724,0,0,0,0,0,0,0,0,0,0,0,0,0,1.5175,1.518,1.543,1.5432,1.5434,1.5568,1.5569,1.5571,1.5571,1.5569,1.5567,1.5565,1.5711,1.5718,1.5725,0,0,0,0,0,0,0,0,0,0,0,0,0,1.5297,1.5181,1.543,1.545,1.5453,1.5567,1.5569,1.5572,1.5572,1.5569,1.5566,1.5564,1.5709,1.5717,1.5726,1.5832,0,0,1.5751,1.5755,0,0,0,0,0,0,0,0,1.529,1.5306,1.5445,1.5448,1.5452,1.5549,1.5534,1.5659,1.5572,1.5527,1.5565,1.5562,1.5661,1.5673,1.5705,1.5839,1.5845,1.5752,1.5757,1.5761,1.5763,0,0,0,0,0,0,0,1.5281,1.53,1.5485,1.5447,1.5451,1.5454,1.5468,1.5557,1.5608,1.553,1.5531,1.5547,1.5663,1.5697,1.5709,1.5847,1.5752,1.5759,1.5764,1.5768,1.6077,1.608,0,0,0,0,0,0,1.5268,1.5293,1.5481,1.5489,1.5362,1.5461,1.5477,1.5521,1.5607,1.5617,1.5549,1.5546,1.5684,1.5699,1.5714,1.5846,1.5761,1.5769,1.5773,1.6074,1.6078,1.6081,0,0,0,0,0,0,1.5262,1.5284,1.5475,1.5391,1.5416,1.5468,1.5518,1.5525,1.5559,1.562,1.563,1.5574,1.5683,1.5702,1.5803,1.5851,1.5772,1.578,1.607,1.6075,1.608,1.6109,0,0,0,0,0,0,1.5255,1.5282,1.5322,1.5392,1.542,1.5559,1.5521,1.553,1.5573,1.5571,1.5647,1.5657,1.5682,1.579,1.5811,1.5861,1.5787,1.6066,1.6073,1.6078,1.6104,1.6114,1.6123,0,0,0,0,0,1.5246,1.5326,1.5324,1.5346,1.547,1.5562,1.5578,1.5603,1.5577,1.5618,1.5658,1.5655,1.5842,1.58,1.5824,1.5877,1.6063,1.6071,1.6078,1.61,1.6112,1.6123,0,0,0,0,0,0,1.5262,1.5335,1.5334,1.5438,1.5493,1.5561,1.5614,1.5615,1.5681,1.5677,1.5707,1.5724,1.5825,1.5861,1.5813,1.5986,1.595,1.5962,1.5959,1.5971,1.598,1.597,1.5794,0,0,0,0,0,1.5277,1.5344,1.5405,1.5491,1.5519,1.5562,1.5603,1.5617,1.5677,1.5701,1.5747,1.5807,1.588,1.5927,1.5997,1.6109,1.6127,1.6157,1.6167,1.6174,1.6185,1.6249,1.6264,1.6105,1.6105,1.6105,0,0,1.531,1.5359,1.5399,1.5496,1.554,1.5611,1.5582,1.5657,1.5711,1.5713,1.5811,1.5847,1.5916,1.6023,1.6072,1.6056,1.6233,1.6183,1.6189,1.6196,1.6258,1.6273,1.6287,1.611,1.6109,1.6108,0,0,1.5407,1.5449,1.5526,1.5571,1.5638,1.5666,1.5685,1.5753,1.5777,1.5874,1.5878,1.5943,1.6067,1.6116,1.6158,1.6274,1.6275,1.6296,1.6346,1.6408,1.6421,1.6432,1.6476,1.6491,1.6306,1.6306,1.6306,0,1.5441,1.5545,1.5567,1.5643,1.5686,1.5689,1.5769,1.5812,1.59,1.5931,1.5911,1.6067,1.6113,1.6233,1.6261,1.6294,1.6318,1.6288,1.6417,1.6428,1.6439,1.6481,1.6497,1.6308,1.6308,1.6308,1.6308,0,1.5584,1.5656,1.5711,1.5793,1.5843,1.592,1.5956,1.6005,1.6015,1.6045,1.6147,1.6202,1.6284,1.6313,1.6325,1.6436,1.6424,1.641,1.6375,1.6456,1.6497,1.6513,1.6312,1.6311,1.631,1.6309,0,0,1.5696,1.5788,1.5808,1.5847,1.5921,1.5979,1.6057,1.6135,1.6177,1.6238,1.6306,1.6411,1.6399,1.6446,1.6463,1.6517,1.6608,1.6497,1.6499,1.6517,1.6737,1.6748,1.6766,1.6608,1.6611,1.6614,1.6731,0,1.5802,1.5939,1.5962,1.6084,1.6152,1.6156,1.6225,1.628,1.6311,1.6376,1.6411,1.6485,1.6462,1.6491,1.6545,1.6585,1.6653,1.6577,1.6675,1.6679,1.666,1.6787,1.6799,1.6908,1.6747,1.675,1.6752,0,1.5944,1.6006,1.6135,1.6201,1.6231,1.6292,1.6366,1.6427,1.649,1.6509,1.6561,1.6572,1.6657,1.6616,1.6735,1.6683,1.6725,1.6751,1.6756,1.6768,1.6722,1.6805,1.6943,1.696,1.6776,1.6774,1.6772,0,1.6016,1.6132,1.6224,1.6256,1.6335,1.6378,1.6414,1.6473,1.6519,1.6585,1.6616,1.6691,1.6733,1.6792,1.6824,1.6791,1.6942,1.6903,1.6963,1.6962,1.6996,1.6994,1.7145,1.7019,1.7018,1.7018,1.7018,0,1.6133,1.6212,1.6257,1.6314,1.6403,1.6429,1.6518,1.6552,1.6606,1.6672,1.668,1.6742,1.6779,1.6847,1.6873,1.6969,1.6987,1.7007,1.7014,1.7008,1.7006,1.7037,1.7032,1.7023,1.7022,1.7021,1.702,0,1.6229,1.6261,1.6363,1.6428,1.6447,1.651,1.6568,1.6625,1.6655,1.6739,1.676,1.6809,1.689,1.6927,1.7027,1.7045,1.7155,1.7155,1.7133,1.7136,1.7194,1.7189,1.7373,1.74,1.7253,1.7255,1.7256,0,1.6303,1.6363,1.6435,1.6479,1.6515,1.6585,1.6631,1.666,1.6708,1.6785,1.6834,1.6914,1.698,1.711,1.7156,1.7234,1.7237,1.7296,1.7249,1.7242,1.7241,1.7238,1.7246,1.7306,1.7307,1.7308,1.7309,0,1.6431,1.6444,1.651,1.6582,1.6636,1.6695,1.6752,1.6788,1.6826,1.6881,1.6962,1.7013,1.7115,1.7197,1.7277,1.7317,1.7321,1.7323,1.7342,1.7338,1.7323,1.7334,1.7159,1.7319,1.7318,1.7318,1.7317,1.7317,1.652,1.6575,1.6634,1.6707,1.6753,1.6807,1.6864,1.6901,1.6968,1.7052,1.7065,1.7153,1.7217,1.7325,1.7367,1.7438,1.7424,1.745,1.7457,1.7464,1.7469,1.731,1.7453,1.7452,1.7452,1.7452,1.7452,0,1.6651,1.6689,1.6756,1.6835,1.6894,1.6889,1.6952,1.7003,1.7079,1.7136,1.7201,1.7296,1.7375,1.7427,1.7508,1.7555,1.7559,1.7575,1.7574,1.7583,1.7475,1.7452,1.7571,1.7571,1.7571,1.7571,1.7571,1.7571,1.6726,1.6819,1.6839,1.6956,1.6994,1.7078,1.7116,1.7166,1.7212,1.7317,1.7382,1.7414,1.7471,1.7556,1.7629,1.7643,1.7673,1.7691,1.7704,1.7603,1.759,1.7579,1.7557,1.7696,1.7696,1.7807,1.7808,1.7809]}]]